Date String (YYYY-MM-DD hh:mm:ss) UTC,Instrument flags,Ambient pressure (hPa),Sample flow (lpm),Bypass flow (lpm),Sample temperature (°C),Ambient temperature (°C),ASC tube jacket temperature (°C),LED temperature (°C),Box temperature (°C),Sample RH (%),Span deviation,Mass concentration (μg/m³),Mass concentration (μg/m³),Mass concentration (μg/m³)
DateTimeUTC,F1_M11,P_M11,Q1_M11,Q2_M11,T1_M11,T2_M11,T3_M11,T4_M11,T5_M11,U1_M11,ZSPAN_M11,X0_M11,X2_M11,X1_M11
2022-06-23 07:00:00,,0827.6,4.99,0.00,29.7,28.7,00.0,38.5,31.6,14.9,0000.0,0013.54,0004.83,0003.49
2022-06-23 07:01:00,,0827.6,5.00,0.00,29.7,28.7,00.0,38.5,31.7,14.9,0000.0,0013.60,0004.86,0003.50
2022-06-23 07:02:00,,0827.7,5.01,0.00,29.8,28.8,00.0,38.5,31.7,15.0,0000.0,0013.72,0004.85,0003.51
2022-06-23 07:03:00,,0827.7,5.01,0.00,29.8,28.8,00.0,38.5,31.7,14.9,0000.0,0013.26,0004.85,0003.50
2022-06-23 07:04:00,,0827.7,4.99,0.00,29.8,28.8,00.0,38.6,31.7,14.8,0000.0,0013.00,0004.88,0003.52
2022-06-23 07:05:00,,0827.6,5.01,0.00,29.8,28.8,00.0,38.6,31.7,14.9,0000.0,0013.73,0004.90,0003.53
2022-06-23 07:06:00,,0827.7,5.01,0.00,29.8,28.8,00.0,38.6,31.7,14.7,0000.0,0013.91,0004.86,0003.53
2022-06-23 07:07:00,,0827.6,4.98,0.00,29.9,28.9,00.0,38.6,31.8,14.7,0000.0,0013.52,0004.79,0003.52
2022-06-23 07:08:00,,0827.6,4.99,0.00,29.9,28.9,00.0,38.6,31.8,14.7,0000.0,0013.27,0004.74,0003.52
2022-06-23 07:09:00,,0827.6,5.01,0.00,29.9,28.9,00.0,38.7,31.7,14.6,0000.0,0012.97,0004.70,0003.52
2022-06-23 07:10:00,,0827.5,5.00,0.00,29.9,28.9,00.0,38.7,31.8,14.6,0000.0,0012.57,0004.63,0003.52
2022-06-23 07:11:00,,0827.5,5.00,0.00,29.9,28.7,00.0,38.7,31.8,14.7,0000.0,0012.48,0004.59,0003.52
2022-06-23 07:12:00,,0827.5,5.00,0.00,29.9,27.9,00.0,38.6,31.6,14.7,0000.0,0012.11,0004.60,0003.52
2022-06-23 07:13:00,,0827.5,5.00,0.00,29.8,27.5,00.0,38.5,31.4,14.8,0000.0,0011.79,0004.61,0003.52
2022-06-23 07:14:00,,0827.5,4.99,0.00,29.7,27.4,00.0,38.5,31.3,14.7,0000.0,0011.85,0004.61,0003.52
2022-06-23 07:15:00,,0827.5,5.00,0.00,29.6,27.4,00.0,38.5,31.3,14.8,0000.0,0011.61,0004.59,0003.49
2022-06-23 07:16:00,,0827.5,5.00,0.00,29.6,27.5,00.0,38.5,31.3,14.8,0000.0,0010.87,0004.53,0003.49
2022-06-23 07:17:00,,0827.5,5.01,0.00,29.6,27.6,00.0,38.5,31.3,14.8,0000.0,0010.47,0004.51,0003.48
2022-06-23 07:18:00,,0827.5,4.99,0.00,29.5,27.7,00.0,38.5,31.3,14.8,0000.0,0010.28,0004.46,0003.47
2022-06-23 07:19:00,,0827.5,5.00,0.00,29.5,27.9,00.0,38.4,31.3,14.7,0000.0,0009.93,0004.42,0003.45
2022-06-23 07:20:00,,0827.5,5.00,0.00,29.5,28.0,00.0,38.4,31.3,14.6,0000.0,0009.41,0004.37,0003.45
2022-06-23 07:21:00,,0827.5,5.00,0.00,29.5,28.1,00.0,38.4,31.3,14.5,0000.0,0010.00,0004.40,0003.44
2022-06-23 07:22:00,,0827.5,5.00,0.00,29.5,28.1,00.0,38.4,31.4,14.5,0000.0,0010.24,0004.42,0003.44
2022-06-23 07:23:00,,0827.5,5.00,0.00,29.5,28.2,00.0,38.4,31.4,14.6,0000.0,0010.13,0004.38,0003.42
2022-06-23 07:24:00,,0827.5,4.99,0.00,29.6,28.3,00.0,38.4,31.4,14.6,0000.0,0009.76,0004.32,0003.41
2022-06-23 07:25:00,,0827.5,4.99,0.00,29.6,28.3,00.0,38.4,31.4,14.5,0000.0,0009.74,0004.27,0003.41
2022-06-23 07:26:00,,0827.5,4.99,0.00,29.6,28.4,00.0,38.4,31.4,14.5,0000.0,0009.55,0004.22,0003.42
2022-06-23 07:27:00,,0827.6,5.01,0.00,29.6,28.4,00.0,38.4,31.5,14.5,0000.0,0010.07,0004.20,0003.41
2022-06-23 07:28:00,,0827.5,4.99,0.00,29.6,28.5,00.0,38.4,31.5,14.5,0000.0,0010.75,0004.23,0003.41
2022-06-23 07:29:00,,0827.6,4.99,0.00,29.6,28.5,00.0,38.4,31.5,14.5,0000.0,0011.25,0004.26,0003.42
2022-06-23 07:30:00,,0827.5,5.01,0.00,29.6,28.5,00.0,38.5,31.5,14.4,0000.0,0011.43,0004.30,0003.42
2022-06-23 07:31:00,,0827.5,5.01,0.00,29.7,28.6,00.0,38.5,31.5,14.4,0000.0,0011.53,0004.34,0003.43
2022-06-23 07:32:00,,0827.6,5.00,0.00,29.7,28.6,00.0,38.5,31.5,14.4,0000.0,0011.43,0004.34,0003.43
2022-06-23 07:33:00,,0827.5,5.01,0.00,29.7,28.6,00.0,38.5,31.6,14.2,0000.0,0010.85,0004.29,0003.43
2022-06-23 07:34:00,,0827.5,5.01,0.00,29.7,28.6,00.0,38.5,31.6,14.2,0000.0,0010.74,0004.28,0003.43
2022-06-23 07:35:00,,0827.5,4.99,0.00,29.7,28.6,00.0,38.5,31.6,14.2,0000.0,0010.96,0004.27,0003.43
2022-06-23 07:36:00,,0827.5,5.00,0.00,29.7,28.7,00.0,38.5,31.6,14.3,0000.0,0011.15,0004.30,0003.43
2022-06-23 07:37:00,,0827.5,5.01,0.00,29.7,28.7,00.0,38.5,31.7,14.2,0000.0,0011.31,0004.31,0003.43
2022-06-23 07:38:00,,0827.5,5.00,0.00,29.8,28.7,00.0,38.5,31.7,14.2,0000.0,0011.23,0004.31,0003.44
2022-06-23 07:39:00,,0827.5,5.00,0.00,29.8,28.7,00.0,38.6,31.7,14.2,0000.0,0010.31,0004.28,0003.45
2022-06-23 07:40:00,,0827.5,5.00,0.00,29.8,28.8,00.0,38.6,31.7,14.2,0000.0,0010.46,0004.28,0003.46
2022-06-23 07:41:00,,0827.5,5.01,0.00,29.8,28.8,00.0,38.6,31.7,14.1,0000.0,0010.94,0004.32,0003.47
2022-06-23 07:42:00,,0827.4,5.00,0.00,29.8,28.8,00.0,38.6,31.7,14.2,0000.0,0011.06,0004.33,0003.48
2022-06-23 07:43:00,,0827.4,5.00,0.00,29.8,28.8,00.0,38.6,31.7,14.1,0000.0,0010.68,0004.35,0003.49
2022-06-23 07:44:00,,0827.4,5.00,0.00,29.9,28.9,00.0,38.6,31.8,14.1,0000.0,0010.67,0004.37,0003.50
2022-06-23 07:45:00,,0827.4,4.99,0.00,29.9,28.9,00.0,38.6,31.8,14.1,0000.0,0010.70,0004.38,0003.50
2022-06-23 07:46:00,,0827.4,5.01,0.00,29.9,28.9,00.0,38.6,31.7,14.1,0000.0,0010.62,0004.40,0003.50
2022-06-23 07:47:00,,0827.4,5.01,0.00,29.9,28.9,00.0,38.7,31.8,14.1,0000.0,0010.66,0004.36,0003.50
2022-06-23 07:48:00,,0827.4,4.99,0.00,29.9,28.9,00.0,38.7,31.8,14.1,0000.0,0011.11,0004.35,0003.50
2022-06-23 07:49:00,,0827.4,4.99,0.00,29.9,28.9,00.0,38.7,31.8,14.1,0000.0,0010.66,0004.38,0003.50
2022-06-23 07:50:00,,0827.4,5.01,0.00,29.9,29.0,00.0,38.7,31.8,14.1,0000.0,0011.08,0004.38,0003.51
2022-06-23 07:51:00,,0827.3,5.01,0.00,30.0,29.0,00.0,38.7,31.9,14.1,0000.0,0011.38,0004.41,0003.52
2022-06-23 07:52:00,,0827.3,4.99,0.00,30.0,29.0,00.0,38.7,31.9,14.1,0000.0,0010.96,0004.36,0003.51
2022-06-23 07:53:00,,0827.4,5.01,0.00,30.0,29.0,00.0,38.7,31.9,14.1,0000.0,0010.86,0004.33,0003.51
2022-06-23 07:54:00,,0827.3,4.99,0.00,30.0,29.0,00.0,38.8,31.9,14.1,0000.0,0011.50,0004.29,0003.51
2022-06-23 07:55:00,,0827.3,5.00,0.00,30.0,29.0,00.0,38.8,31.9,14.1,0000.0,0012.04,0004.29,0003.50
2022-06-23 07:56:00,,0827.3,5.00,0.00,30.0,29.0,00.0,38.8,31.9,14.1,0000.0,0012.32,0004.31,0003.50
2022-06-23 07:57:00,,0827.3,5.00,0.00,30.0,29.0,00.0,38.8,31.9,14.0,0000.0,0012.63,0004.35,0003.51
2022-06-23 07:58:00,,0827.2,5.00,0.00,30.0,29.1,00.0,38.8,31.9,14.0,0000.0,0012.63,0004.41,0003.53
2022-06-23 07:59:00,,0827.2,5.00,0.00,30.1,29.1,00.0,38.8,31.9,14.0,0000.0,0012.00,0004.45,0003.53
